Weather History for Sanford, FL

Change the Weather History Date:

Tuesday, June 10, 2014

  Actual Average Record
Temperature  
Mean Temperature 84 °F -  
Max Temperature 96 °F 90 °F 99 °F (1985)
Min Temperature 73 °F 69 °F 62 °F (1979)
Cooling Degree Days 19    
Growing Degree Days 34 (Base 50)    
Moisture  
Dew Point 72 °F    
Average Humidity 83    
Maximum Humidity 96    
Minimum Humidity 37    
Precipitation  
Precipitation 0.79 in - - ()
Sea Level Pressure  
Sea Level Pressure 30.01 in    
Wind  
Wind Speed 6 mph (SW)    
Max Wind Speed 24 mph    
Max Gust Speed -    
Visibility 7 miles    
Events Fog , Rain , Thunderstorm    
Averages and records for this station are not official NWS values.
T = Trace of Precipitation, MM = Missing Value Source: NWS Daily Summary

Daily Weather History Graph

Daily Weather History Graph

Search for Another Location

Airport:

Trip Planner

Search our weather history database for the weather conditions in past years. The results will help you decide how hot, cold, wet, or windy it might be!

Date:

Astronomy

Jun. 10, 2014 Rise Set
Actual Time 6:26 AM EDT 8:22 PM EDT
Civil Twilight 5:59 AM EDT 8:49 PM EDT
Nautical Twilight 5:26 AM EDT 9:22 PM EDT
Astronomical Twilight 4:52 AM EDT 9:56 PM EDT
Moon 5:56 PM EDT (6/10) 4:18 AM EDT (6/10)
Length of Visible Light 14h 50m
Length of Day
13h 56m
Waxing Gibbous, 92% of the Moon is Illuminated
Jun 10
Waxing Gibbous
Jun 13
Full
Jun 19
Last Quarter
Jun 27
New
Jul 5
First Quarter

Hourly Weather History & Observations

Time (EDT) Temp. Heat Index Dew Point Humidity Pressure Visibility Wind Dir Wind Speed Gust Speed Precip Events Conditions
12:53 AM 79.0 °F - 73.9 °F 84% 30.00 in 10.0 mi South 5.8 mph - N/A   Clear
1:53 AM 78.1 °F - 75.0 °F 90% 29.99 in 10.0 mi South 4.6 mph - N/A   Clear
2:53 AM 77.0 °F - 75.0 °F 94% 29.99 in 10.0 mi SSW 3.5 mph - N/A   Clear
3:53 AM 77.0 °F - 73.9 °F 90% 29.98 in 10.0 mi Calm Calm - N/A   Clear
4:53 AM 75.9 °F - 73.9 °F 94% 29.98 in 10.0 mi South 3.5 mph - N/A   Clear
5:53 AM 75.0 °F - 73.9 °F 96% 29.99 in 8.0 mi Calm Calm - N/A   Clear
6:53 AM 75.0 °F - 73.9 °F 96% 29.99 in 5.0 mi Calm Calm - N/A   Clear
7:53 AM 78.1 °F - 75.9 °F 93% 30.01 in 8.0 mi Calm Calm - N/A   Clear
8:53 AM 82.0 °F 89.4 °F 75.9 °F 82% 30.01 in 10.0 mi Calm Calm - N/A   Clear
9:53 AM 84.0 °F 92.6 °F 75.9 °F 76% 30.01 in 10.0 mi SW 3.5 mph - N/A   Clear
11:53 AM 90.0 °F 97.9 °F 73.0 °F 57% 30.00 in 10.0 mi Variable 3.5 mph - N/A   Clear
1:53 PM 95.0 °F 100.7 °F 69.1 °F 43% 29.98 in 10.0 mi SE 8.1 mph - N/A   Clear
2:53 PM 95.0 °F 97.4 °F 64.9 °F 37% 29.96 in 10.0 mi SE 5.8 mph - N/A Thunderstorm Partly Cloudy
3:43 PM 84.0 °F 85.8 °F 64.9 °F 53% 29.95 in 10.0 mi ESE 24.2 mph - 0.00 in Thunderstorm Mostly Cloudy
3:53 PM 84.0 °F 86.3 °F 66.0 °F 55% 29.95 in 10.0 mi ENE 17.3 mph - 0.00 in Thunderstorm Scattered Clouds
5:45 PM 80.1 °F 82.7 °F 68.0 °F 67% 30.00 in 10.0 mi West 12.7 mph - N/A Thunderstorm Thunderstorm
5:53 PM 80.1 °F 82.9 °F 69.1 °F 69% 30.01 in 10.0 mi West 13.8 mph - N/A Thunderstorm Thunderstorm
6:06 PM 78.1 °F - 69.1 °F 74% 30.02 in 10.0 mi WSW 15.0 mph - N/A Thunderstorm Overcast
6:18 PM 73.9 °F - 71.1 °F 91% 30.03 in 1.5 mi WSW 10.4 mph - 0.09 in Rain , Thunderstorm Heavy Rain
6:28 PM 73.9 °F - 71.1 °F 91% 30.03 in 0.5 mi WNW 8.1 mph - 0.30 in Fog , Rain , Thunderstorm Heavy Thunderstorms and Rain
6:41 PM 73.9 °F - 71.1 °F 91% 30.04 in 2.0 mi WNW 10.4 mph - 0.41 in Rain , Thunderstorm Light Thunderstorms and Rain
6:49 PM 73.4 °F - 71.6 °F 94% 30.04 in 4.0 mi NNW 8.1 mph - 0.44 in Rain , Thunderstorm Thunderstorms and Rain
6:53 PM 73.0 °F - 71.1 °F 93% 30.04 in 4.0 mi NNW 5.8 mph - 0.45 in Rain , Thunderstorm Thunderstorms and Rain
7:10 PM 73.9 °F - 72.0 °F 93% 30.06 in 2.5 mi SW 6.9 mph - 0.06 in Rain , Thunderstorm Rain
7:19 PM 73.9 °F - 72.0 °F 93% 30.06 in 1.5 mi SW 10.4 mph - 0.14 in Rain , Thunderstorm Heavy Rain
7:31 PM 73.9 °F - 72.0 °F 93% 30.07 in 2.0 mi SSW 8.1 mph - 0.22 in Rain , Thunderstorm Light Thunderstorms and Rain
7:40 PM 73.9 °F - 72.0 °F 93% 30.05 in 4.0 mi WSW 9.2 mph - 0.24 in Rain , Thunderstorm Light Thunderstorms and Rain
7:44 PM 73.9 °F - 71.1 °F 91% 30.05 in 2.5 mi WSW 9.2 mph - 0.26 in Rain Rain
7:53 PM 73.0 °F - 71.1 °F 93% 30.04 in 1.5 mi SW 8.1 mph - 0.31 in Rain Rain
8:01 PM 73.0 °F - 71.1 °F 93% 30.03 in 3.0 mi WSW 4.6 mph - 0.00 in Rain Light Rain
8:53 PM 73.0 °F - 71.1 °F 93% 30.00 in 10.0 mi Calm Calm - 0.03 in   Partly Cloudy
9:53 PM 73.9 °F - 71.1 °F 91% 29.99 in 10.0 mi NNE 5.8 mph - N/A   Clear
11:36 PM 73.0 °F - 71.1 °F 93% 30.01 in 10.0 mi South 5.8 mph - N/A   Partly Cloudy
11:53 PM 73.0 °F - 72.0 °F 96% 30.01 in 10.0 mi South 5.8 mph - N/A   Partly Cloudy